Temp
17 18 18 18 19 17 17 18 17 19 19 20 19 21 23 23 24 24 21 19 19 20 20 20 21 20 21 20 20 20 20 20 20 20 19 18 18 18 18 18 19 19 18 19 19 18 19 18 17
17 18 18 16 18 18 19 16 18 19 19 19 19 21 22 23 22 22 21 19 20 19 19 20 21 20 20 20 20 20 20 20 19 19 19 19 19 19 18 19 19 19 19 19 18 18 18 17 17
17 18 17 17 15 18 19 16 17 18 18 19 21 20 21 20 20 18 18 18 20 19 19 20 20 20 20 20 20 20 20 20 19 19 19 19 19 19 19 19 19 19 19 19 18 18 17 17 18
17 16 15 16 16 15 17 17 17 18 19 19 18 21 19 17 16 16 16 18 19 19 19 20 20 20 20 20 20 20 20 20 20 19 20 19 19 19 19 19 19 19 18 18 18 18 17 18 18
15 14 14 14 15 14 15 16 16 17 18 19 18 20 19 18 17 16 17 18 19 19 19 19 20 20 20 20 20 20 20 20 20 20 19 19 19 19 19 19 19 19 18 18 17 17 18 18 18
13 13 14 15 14 14 14 15 16 17 17 18 19 19 19 17 18 18 16 18 18 19 20 20 20 20 20 20 20 20 20 20 20 19 19 19 19 19 19 19 19 19 18 17 17 18 18 18 18
13 13 14 13 14 15 15 14 16 17 16 18 17 19 19 17 17 18 18 18 19 19 20 20 20 20 19 20 20 19 20 20 20 19 19 19 19 19 19 19 19 19 18 17 17 17 18 18 18
11 12 12 12 14 16 13 14 14 16 16 15 16 18 19 17 17 18 19 17 18 19 19 19 20 20 19 19 20 20 20 19 19 19 19 19 19 19 19 19 19 19 18 17 18 18 18 18 18
11 12 13 13 12 14 13 14 14 14 14 15 15 16 17 16 17 18 18 18 17 17 17 18 19 19 20 20 20 20 20 20 19 19 19 19 18 18 18 19 19 19 19 18 18 18 18 18 18
11 12 13 12 12 13 12 13 13 14 14 14 15 15 17 17 15 14 15 15 17 17 17 16 17 18 19 19 20 19 20 20 19 19 19 19 19 19 18 18 18 18 19 19 18 18 17 18 18
10 11 11 12 12 11 11 11 12 12 13 13 15 15 14 14 14 14 14 15 16 17 18 17 16 17 18 20 20 20 20 20 19 19 19 18 18 18 18 18 17 17 18 17 17 17 16 17 18
11 10 10 11 11 10 11 11 11 11 13 14 13 13 13 13 13 13 14 15 16 17 18 17 17 16 18 18 19 19 20 20 19 19 19 18 18 18 18 17 18 17 17 18 17 16 17 17 17
10 9 10 10 10 10 10 10 11 11 12 13 12 12 12 12 12 12 14 14 15 16 18 18 17 16 17 17 18 19 19 19 19 19 19 19 19 18 18 18 18 17 17 17 18 17 17 17 17
8 9 9 9 10 10 10 10 10 12 11 11 11 12 12 12 12 12 13 14 15 17 17 18 17 16 15 17 17 18 19 19 18 18 18 18 19 19 19 19 19 18 18 17 18 17 17 17 17
9 9 9 10 10 10 10 10 9 12 11 11 12 12 12 12 12 12 13 14 15 16 17 17 18 16 15 16 17 17 18 19 18 18 18 18 18 18 18 18 19 19 18 18 17 17 17 17 17
8 8 10 11 10 11 11 12 12 12 11 12 12 12 13 14 12 12 14 14 15 15 15 17 17 17 16 15 16 16 17 18 18 18 18 18 18 18 17 17 17 18 18 18 17 17 17 17 17
8 9 8 9 10 10 10 11 11 12 12 12 12 12 12 12 12 11 13 14 15 15 15 15 17 17 16 16 16 16 16 16 16 17 17 18 18 17 16 17 16 16 17 16 17 17 16 17 16
8 8 9 9 10 10 10 10 11 11 11 12 12 12 12 12 12 12 12 13 14 15 15 16 16 16 16 16 15 15 15 16 16 17 16 16 16 17 17 16 16 16 15 15 17 17 17 16 16
9 9 9 10 11 10 9 10 11 12 12 12 11 10 11 11 11 11 11 12 13 14 15 15 15 15 16 14 13 13 14 16 15 17 17 16 14 15 15 15 16 16 15 15 16 15 16 15 16
8 8 8 10 10 10 11 12 13 12 11 11 11 10 10 10 10 10 10 11 12 13 14 14 14 15 15 15 14 14 14 15 16 15 14 15 15 14 14 15 15 15 15 15 15 15 15 15 15
8 8 8 10 11 12 11 11 10 12 11 11 11 10 10 10 10 10 11 11 12 12 13 14 14 15 15 13 13 13 14 15 15 15 14 15 15 15 14 14 14 15 15 15 15 15 15 14 15
9 9 10 10 11 11 12 11 11 10 11 11 11 11 11 10 10 10 11 10 11 12 13 14 14 14 14 13 13 14 14 14 14 14 15 15 15 15 14 14 14 15 15 15 14 14 15 15 14
10 11 10 10 10 10 11 11 11 11 11 10 10 11 11 10 10 10 10 10 12 13 13 14 14 13 14 13 13 13 14 14 14 15 15 15 14 14 15 14 14 14 14 14 14 15 15 16 15
10 10 10 10 11 12 11 11 11 11 9 9 11 12 11 11 10 11 11 11 11 13 13 13 12 13 12 12 13 13 13 13 13 14 14 14 14 14 14 14 14 14 15 15 15 16 16 16 17
10 10 9 9 11 11 11 12 11 10 9 10 11 11 11 10 9 9 11 12 11 12 11 11 12 12 12 13 13 14 14 13 13 14 14 14 14 14 14 14 14 14 14 15 14 14 14 14 14
11 11 10 10 11 11 12 11 11 10 9 10 10 10 10 10 9 9 8 11 11 11 11 11 12 12 13 13 13 15 15 14 13 13 14 13 14 14 14 14 14 14 14 14 14 15 16 15 15
11 11 11 11 11 11 12 11 10 10 8 9 9 9 9 9 8 8 8 9 9 10 10 11 12 14 15 15 14 14 13 13 13 13 14 13 13 13 13 13 13 13 13 14 14 14 14 14 14
11 11 12 11 12 12 13 11 10 8 8 8 9 8 9 8 8 7 7 7 7 8 8 9 9 10 10 11 11 12 12 13 13 13 13 13 13 13 13 13 13 13 13 13 13 14 14 14 13
11 11 11 11 11 12 12 10 8 8 8 8 9 9 9 8 7 7 7 7 6 6 7 7 7 7 7 8 8 10 9 10 11 12 12 11 12 12 12 12 12 12 13 13 13 13 13 13 13
11 11 11 11 12 11 11 11 10 10 9 9 9 9 9 9 8 8 7 6 6 6 6 6 6 6 6 6 8 7 8 8 9 9 9 10 10 10 10 10 10 10 10 10 11 10 10 11 11
Height
796 797 798 799 815 821 826 820 817 813 811 806 806 804 803 799 800 809 794 792 793 793 794 798 801 804 806 809 811 814 816 817 819 821 822 822 824 825 827 829 830 831 832 834 835 836 837 837 838
797 798 799 807 821 825 816 818 814 809 807 805 804 802 802 801 796 795 794 796 795 797 798 799 801 802 806 809 811 814 816 817 819 821 822 823 825 826 827 829 830 831 832 834 836 837 838 839 839
797 798 803 813 826 820 815 817 812 808 807 804 803 801 802 807 800 799 796 795 795 797 800 802 804 804 807 809 811 813 816 817 818 820 822 823 824 826 828 829 831 832 834 835 837 839 838 839 840
797 801 814 818 822 822 819 815 814 811 807 806 807 806 806 809 806 802 796 794 795 797 799 802 804 806 808 809 812 813 815 817 819 820 822 823 825 826 828 829 831 832 834 836 838 839 839 839 840
799 807 822 827 823 822 819 816 814 814 812 809 808 807 807 807 805 802 796 795 796 797 799 802 804 807 809 809 811 813 815 817 818 820 821 822 824 827 827 830 831 832 834 836 838 839 840 841 841
808 813 824 825 823 821 817 814 814 814 813 809 809 809 806 805 801 799 798 796 797 798 799 802 805 807 809 810 811 812 814 816 818 820 820 822 824 827 828 830 832 833 834 836 838 839 840 842 842
811 816 821 827 822 818 814 816 814 814 815 812 811 810 805 805 803 801 799 796 797 799 801 802 803 805 807 809 811 813 814 816 817 819 821 822 824 825 829 830 832 834 835 837 838 839 840 841 843
813 818 827 827 823 815 818 815 815 815 814 813 811 809 806 804 803 801 800 798 797 798 799 801 803 805 806 808 810 812 813 815 816 819 821 822 825 826 828 830 832 834 835 837 838 839 840 841 843
814 824 826 823 826 818 821 818 817 818 816 814 810 808 804 803 802 800 799 798 798 799 799 800 801 803 804 806 808 811 813 813 814 817 819 822 824 826 828 830 831 833 835 837 838 840 840 841 843
819 825 821 823 823 821 822 821 821 819 817 815 811 806 803 802 802 801 801 800 799 798 798 798 799 800 803 804 806 809 810 811 813 815 817 820 822 825 827 829 831 833 834 836 839 840 842 842 842
825 823 826 823 823 823 823 822 821 818 816 811 807 804 804 802 801 800 800 800 799 797 797 797 796 798 799 801 804 806 808 811 812 813 815 817 820 823 824 828 831 833 834 836 838 840 842 842 841
823 825 826 825 825 826 824 823 820 816 808 803 805 805 805 802 801 799 797 796 796 795 794 795 795 795 797 799 802 804 805 807 809 811 813 814 817 820 822 825 828 830 832 835 837 838 839 841 842
825 828 826 824 825 825 823 821 817 811 800 803 802 803 802 800 796 794 792 792 792 792 790 790 792 793 793 796 798 800 802 804 806 808 809 811 812 815 819 823 825 828 831 832 834 837 838 840 841
829 828 826 823 821 822 820 816 818 799 799 798 799 797 796 794 791 789 787 786 786 786 786 787 788 789 792 792 794 796 799 801 803 806 807 809 809 812 815 818 821 825 828 830 833 835 836 838 840
827 826 824 821 819 819 818 814 810 795 800 797 793 792 790 787 785 783 780 780 780 781 782 783 784 785 787 790 792 793 795 798 800 803 805 807 809 809 811 813 815 817 822 826 830 833 835 836 838
831 831 821 818 819 815 815 800 796 797 797 793 790 787 784 779 778 776 775 774 774 775 777 778 779 780 782 785 788 790 792 794 796 799 802 805 806 808 809 810 811 813 817 819 824 829 832 835 835
835 829 835 826 819 818 818 805 801 794 790 785 785 782 777 773 771 769 768 767 767 768 770 773 774 775 777 781 784 787 789 792 793 795 797 799 802 804 805 807 808 811 813 816 819 823 829 832 834
834 839 834 831 820 817 816 801 799 795 788 781 777 775 772 768 762 761 761 761 760 761 763 767 769 770 773 775 779 782 785 787 788 790 792 794 797 798 799 801 803 805 809 811 814 818 821 827 830
832 831 831 824 815 818 812 798 788 784 782 774 770 769 767 763 757 756 755 754 755 756 758 759 763 763 767 770 774 777 779 780 781 784 787 789 791 792 793 795 797 799 802 804 809 813 816 824 824
833 835 831 820 812 816 805 785 776 775 773 771 768 765 763 760 755 751 750 750 751 751 752 754 757 758 761 764 767 771 772 774 776 779 781 783 785 786 788 790 791 793 796 798 802 805 809 817 822
833 832 828 822 811 801 801 786 781 773 773 771 766 763 761 756 751 747 746 746 745 745 746 748 750 752 755 760 763 767 770 771 773 774 776 777 779 780 782 784 785 787 791 793 795 801 804 809 813
826 818 817 816 811 809 798 791 782 780 772 767 761 757 752 750 747 744 740 739 739 737 738 741 744 747 750 754 759 761 763 766 768 769 770 772 774 776 777 779 781 783 786 788 791 795 799 803 802
814 809 813 813 811 808 795 800 776 773 769 772 764 755 751 748 743 739 736 735 733 732 733 735 738 742 744 748 753 756 760 762 764 766 766 768 769 771 773 775 776 778 781 784 787 791 793 797 801
811 811 808 808 801 794 789 794 779 779 783 775 762 753 750 747 742 736 732 730 729 729 729 731 733 735 740 743 747 751 754 757 760 762 763 764 766 767 768 769 771 774 778 781 782 786 789 791 794
813 807 820 814 796 797 787 784 780 786 781 773 757 756 752 749 744 738 731 727 726 724 724 726 730 731 736 739 743 745 748 752 755 758 760 761 762 763 764 766 767 768 772 776 779 782 785 788 790
803 803 814 810 800 792 783 785 784 786 783 774 766 762 756 751 746 740 732 726 725 721 721 723 725 729 733 736 739 743 744 746 749 753 756 758 759 759 761 762 764 765 768 773 775 779 783 785 787
801 800 800 797 793 788 781 784 785 785 786 778 774 766 761 755 750 742 734 729 725 723 724 724 726 729 731 736 737 740 740 740 743 748 752 754 755 756 757 761 763 765 768 770 774 776 778 781 783
801 802 795 797 790 783 773 786 790 795 792 787 777 773 766 761 754 746 739 734 730 730 732 730 731 733 735 735 740 739 738 735 738 742 745 749 754 756 757 759 762 765 768 770 772 773 776 778 779
800 800 799 796 793 786 782 793 801 798 794 789 782 777 773 768 762 755 747 743 742 739 739 738 739 738 740 738 734 737 741 742 744 745 749 751 754 756 758 758 759 762 764 765 768 770 771 773 773
798 798 797 796 788 796 796 792 793 791 791 788 783 778 774 771 768 764 760 757 754 751 750 748 748 748 749 749 744 748 749 748 748 752 755 757 758 759 760 762 762 763 764 766 768 768 769 770 771
Wind_Speed
2 4 4 5 3 2 2 4 1 2 3 2 3 2 1 1 3 1 11 2 7 16 23 21 20 20 21 18 18 17 17 16 16 15 14 15 15 17 16 16 17 19 17 16 16 15 16 15 13
5 5 4 3 3 2 3 2 6 3 1 7 2 1 2 0 2 6 4 9 3 13 17 20 22 21 21 20 19 17 16 17 17 15 14 15 16 17 17 18 16 18 19 18 17 16 15 15 13
7 4 3 3 3 4 2 2 4 1 1 1 1 2 2 5 9 10 13 14 4 14 19 19 20 19 20 20 19 19 17 15 16 17 14 15 17 17 19 19 18 19 18 17 18 16 16 13 11
3 4 3 2 4 3 2 2 1 2 2 4 2 3 4 9 8 13 19 6 8 15 19 19 19 18 18 19 19 19 19 18 16 14 16 14 16 16 17 19 20 19 17 17 18 16 14 13 13
6 2 3 2 3 3 3 1 1 1 3 3 4 1 0 2 17 16 15 1 8 15 18 18 19 20 18 18 19 19 19 18 17 17 17 16 15 13 16 21 19 17 17 20 18 16 14 13 13
3 2 2 3 4 2 3 3 1 2 1 3 1 4 2 6 24 25 14 5 6 12 17 17 16 16 17 17 18 18 17 18 17 17 17 16 15 14 19 22 18 16 17 20 18 16 14 12 12
5 2 3 3 2 4 2 2 3 4 3 3 2 2 2 5 20 22 16 7 4 8 11 17 17 16 16 16 17 18 17 17 17 17 16 15 16 17 17 20 16 16 17 18 18 17 15 12 11
3 3 3 2 2 4 3 2 1 1 3 6 1 4 3 3 16 19 18 12 4 5 11 17 17 17 18 16 16 17 18 17 17 16 16 15 16 17 19 20 16 17 17 18 18 18 16 13 11
1 3 3 4 6 1 3 4 2 3 3 4 2 3 5 12 18 20 21 20 14 5 5 11 18 18 18 18 18 16 16 18 18 17 16 16 16 18 18 20 18 17 17 18 18 18 17 14 12
3 2 7 2 2 2 3 1 4 3 1 4 6 10 18 17 15 16 17 17 18 15 9 9 11 18 19 21 19 18 18 18 19 18 18 18 18 19 19 20 19 16 17 18 18 18 18 16 15
1 3 1 0 0 3 4 4 1 3 6 11 9 8 7 12 22 20 16 18 18 17 15 11 13 15 18 18 18 18 17 15 19 19 18 18 19 20 21 20 19 17 17 16 17 17 16 18 17
3 1 0 2 1 4 4 4 6 10 12 10 9 8 11 15 14 17 20 25 23 19 18 14 13 16 18 17 18 18 17 18 20 20 19 21 21 22 24 21 23 18 18 19 19 17 19 18 17
2 1 3 4 7 7 8 13 9 9 19 13 15 13 14 14 21 21 25 26 24 22 20 16 15 18 21 21 19 20 18 17 18 20 21 22 23 24 25 23 24 21 20 21 22 21 20 19 18
2 2 6 6 5 5 6 6 0 9 5 10 9 13 13 13 21 20 21 25 25 23 24 19 17 19 21 23 22 21 18 16 17 18 19 21 23 24 25 27 25 24 24 23 23 23 21 20 18
1 4 5 1 2 3 3 7 9 15 5 11 13 12 13 13 19 21 26 25 27 27 25 23 19 18 23 25 26 25 23 21 18 13 12 16 20 23 22 26 30 30 28 27 24 23 22 21 20
3 3 3 1 3 2 2 7 5 3 5 11 13 13 16 18 20 22 26 27 26 29 29 24 21 20 22 29 28 27 25 24 23 19 16 18 19 22 26 25 27 33 32 32 26 26 23 22 20
6 1 3 8 3 2 1 10 7 14 19 20 15 17 17 16 16 20 26 27 28 29 30 27 24 22 22 27 29 28 26 25 24 22 20 20 21 23 27 30 27 28 33 31 30 27 23 23 22
2 2 2 6 4 5 12 24 17 17 18 20 18 16 16 16 17 22 25 25 28 28 30 29 26 25 22 24 29 30 28 28 29 26 23 21 23 23 26 30 31 30 26 28 32 31 24 25 23
1 2 6 6 9 5 8 19 20 18 15 18 16 13 14 15 16 19 23 23 26 28 30 30 26 26 24 21 19 19 24 30 28 29 27 25 23 22 24 27 30 34 29 30 32 32 26 30 25
1 3 6 9 6 4 11 23 22 16 10 7 9 10 10 10 13 14 13 18 21 26 31 32 25 23 27 26 25 18 19 21 26 22 22 22 25 24 24 27 29 31 27 29 28 30 23 21 21
3 4 4 7 6 9 7 10 5 3 4 5 7 9 11 11 12 12 10 14 18 24 32 33 30 26 26 23 19 20 15 13 14 21 22 22 22 26 28 27 28 29 30 29 31 33 31 23 19
3 8 11 9 7 4 2 6 5 5 9 9 16 15 14 13 10 10 11 14 20 25 26 28 28 27 25 24 23 22 19 17 19 18 20 18 20 24 26 28 30 31 32 28 30 34 29 23 15
6 1 5 6 11 8 3 5 5 8 13 18 20 16 11 10 10 12 12 15 19 16 19 24 24 24 22 23 24 21 19 20 18 18 18 18 19 23 24 30 30 30 29 31 30 30 26 21 21
4 5 6 5 3 4 4 5 3 6 10 16 17 7 7 11 13 11 11 13 17 12 15 19 21 21 20 21 22 21 20 19 19 17 17 18 18 19 25 29 31 31 30 27 29 29 27 29 30
3 4 3 4 2 5 4 4 3 12 16 15 9 12 10 12 13 13 11 7 10 14 10 12 18 18 21 25 23 25 22 19 19 20 17 15 17 21 24 25 29 32 35 32 29 25 25 25 27
2 1 2 3 2 4 2 4 2 13 14 16 14 13 13 13 15 13 12 3 4 3 9 12 14 17 20 21 21 13 18 24 25 23 23 20 21 21 15 12 18 26 30 26 22 23 25 21 19
2 2 0 3 4 3 2 1 2 14 14 15 16 15 15 16 17 14 11 12 17 18 20 5 5 10 15 16 9 7 13 24 23 22 22 22 20 22 19 14 11 11 11 12 13 12 11 12 14
4 2 2 2 4 4 2 2 5 11 12 13 12 14 16 16 17 15 14 20 25 23 24 25 23 21 17 14 13 17 13 20 17 16 17 14 9 5 4 6 8 9 9 8 10 12 13 14 15
2 2 3 3 1 2 4 2 2 6 7 10 11 12 12 13 14 15 17 29 27 28 28 28 27 24 26 27 30 28 25 26 26 25 21 20 18 16 15 12 9 7 7 7 10 12 12 14 15
2 4 2 1 1 1 1 2 7 7 5 8 10 10 10 10 11 12 16 22 25 27 27 28 29 24 24 24 33 31 28 29 29 26 22 19 18 17 15 13 14 13 10 8 5 3 1 2 5
Wind_Direction
123 144 120 42 89 67 220 237 264 196 186 157 294 209 270 290 215 214 345 157 340 179 174 178 173 176 179 174 169 166 165 163 160 164 162 158 156 153 153 153 150 145 137 137 136 126 124 128 125
122 119 64 92 98 156 227 185 200 172 320 308 231 254 206 342 352 340 33 342 315 179 177 177 178 177 179 178 174 172 171 172 168 168 169 167 165 162 157 154 156 153 142 140 139 137 135 133 128
108 90 79 90 137 201 245 208 164 129 5 19 66 32 15 356 331 338 325 322 230 181 185 184 181 180 181 185 180 176 176 179 174 172 178 180 175 175 164 160 152 147 144 148 146 144 150 143 141
129 42 53 106 215 252 261 76 76 350 337 35 352 98 92 70 334 328 323 323 197 188 188 187 186 184 184 190 189 186 184 184 186 183 186 191 184 186 184 169 159 155 161 160 156 161 149 142 138
50 63 88 107 245 233 238 246 123 356 330 342 333 141 19 48 18 359 0 302 205 189 190 191 196 194 193 193 195 196 195 196 193 189 193 193 188 190 181 170 170 176 171 167 166 163 154 147 143
55 90 108 195 245 217 253 235 191 183 280 309 299 325 249 37 21 15 14 30 216 202 195 194 202 206 206 208 207 202 203 204 202 200 201 198 190 190 182 175 181 181 180 169 171 168 162 158 154
107 90 164 155 250 301 186 331 184 189 173 226 321 269 288 4 8 12 16 17 150 204 210 208 200 206 211 212 214 212 209 211 211 209 207 204 194 192 192 185 191 188 179 174 178 176 171 166 165
98 88 122 218 204 269 15 20 357 76 217 317 268 230 258 297 346 355 14 20 8 207 211 208 212 209 210 212 215 219 214 216 216 216 212 208 203 198 193 193 198 195 192 186 186 186 182 176 170
96 82 190 204 173 285 11 19 26 330 295 319 282 254 281 309 323 331 350 358 8 341 254 238 207 217 220 219 220 220 222 218 217 217 215 211 205 204 199 200 198 198 195 194 194 196 192 185 183
80 144 207 186 187 289 313 211 349 331 267 269 293 283 286 295 321 337 335 329 332 339 319 261 239 221 217 223 221 218 218 218 211 210 210 211 209 209 203 204 204 202 201 200 199 199 200 197 194
115 169 200 152 283 15 310 301 262 242 257 225 230 255 290 309 313 309 301 296 298 305 311 291 248 232 225 232 224 223 224 221 217 215 212 210 210 210 207 202 201 204 207 202 201 203 206 210 207
113 62 291 297 18 335 299 297 275 227 252 242 236 256 287 283 275 277 285 285 286 287 290 292 259 234 229 221 220 224 218 218 219 216 213 209 209 210 207 202 206 206 207 211 208 208 212 217 220
89 14 317 283 287 265 250 253 252 257 257 263 265 264 257 263 270 267 269 273 274 271 266 274 260 245 229 225 218 218 221 216 215 217 217 216 211 210 211 209 212 213 217 216 216 218 219 224 227
167 274 274 276 268 254 263 273 137 257 265 268 261 260 252 245 254 264 264 264 264 260 259 260 264 245 238 224 214 211 208 204 207 215 219 217 218 218 217 216 217 221 224 226 224 225 225 230 233
80 343 322 241 330 264 193 266 231 254 294 277 278 270 265 250 250 244 253 255 262 260 258 256 258 248 232 225 218 216 213 206 209 213 223 230 230 228 220 219 216 222 227 226 231 231 233 233 238
52 58 14 358 334 321 104 264 277 283 283 269 280 284 274 277 256 248 256 258 259 258 256 248 245 248 232 227 225 224 222 217 218 225 248 247 243 239 233 223 221 222 223 221 217 229 234 241 243
19 47 11 317 339 295 219 282 269 303 295 286 276 269 276 279 261 251 256 256 255 253 252 252 242 243 239 232 230 230 230 231 235 245 254 251 246 242 238 235 228 226 225 220 216 221 234 240 247
124 45 281 255 282 283 280 273 278 273 275 279 275 273 273 274 265 260 261 264 251 248 248 248 250 242 243 237 233 234 237 241 244 249 256 257 250 240 238 234 232 229 220 217 219 225 223 244 250
129 238 256 270 269 294 272 278 288 283 278 276 274 273 279 275 274 268 269 265 251 250 247 246 244 242 235 230 221 228 230 235 239 245 245 249 247 244 237 233 227 230 220 219 223 218 214 235 238
249 306 285 280 276 203 278 287 292 286 269 274 282 286 292 290 284 279 265 263 253 251 248 251 241 242 235 228 222 217 225 231 240 247 251 246 245 245 241 232 226 226 216 221 213 200 200 235 249
234 215 242 238 283 255 293 283 288 298 289 294 287 278 288 283 288 287 274 257 261 260 249 248 248 239 232 218 212 212 220 232 232 236 242 248 245 244 240 228 224 215 226 214 200 200 205 208 227
271 211 243 264 312 297 72 293 265 316 326 327 322 313 302 294 279 265 266 263 253 257 243 240 244 237 227 214 217 206 211 210 223 229 244 250 237 239 236 237 227 224 216 208 206 206 213 215 206
243 185 253 263 263 277 241 240 268 349 336 328 315 309 309 302 294 287 278 262 260 250 240 234 235 238 225 209 210 206 214 223 224 233 239 240 242 233 240 237 227 227 224 221 216 208 206 216 226
287 299 273 227 225 244 215 192 294 2 325 314 303 320 6 2 347 321 294 271 261 251 243 243 227 221 213 207 206 209 214 219 225 226 225 231 234 233 239 234 228 225 225 221 219 215 220 225 225
180 276 337 2 197 235 189 227 307 349 338 323 357 12 357 12 3 347 330 287 279 274 244 212 204 195 207 210 216 209 220 224 225 223 219 213 227 230 235 232 231 224 224 226 226 229 238 253 235
256 140 170 270 283 287 200 238 346 353 353 342 19 5 2 350 6 339 328 312 353 292 214 199 197 198 209 212 216 228 237 238 231 226 230 233 224 216 186 197 214 217 216 239 219 228 240 248 249
60 213 263 263 227 266 237 286 192 4 355 2 8 6 359 6 351 356 355 46 45 51 52 113 148 174 184 163 160 218 258 235 218 224 220 210 198 176 154 149 153 168 187 196 194 198 212 231 246
209 359 246 222 312 306 329 64 312 349 340 348 3 13 0 5 354 9 24 42 44 40 60 65 73 78 89 117 117 105 82 103 119 123 137 135 135 146 171 191 200 199 204 213 219 227 238 248 259
174 260 232 283 292 304 321 349 298 313 326 345 357 357 1 359 9 18 29 38 42 51 60 56 58 62 71 77 78 86 86 90 95 91 87 87 92 91 87 84 120 169 203 218 234 247 258 266 267
179 201 215 233 265 220 241 349 350 340 345 347 331 349 3 16 20 29 34 42 45 45 49 56 60 56 73 76 81 79 81 79 78 78 76 75 75 73 73 78 79 76 71 69 75 62 53 294 299